Regional Weather Roundup
Issued by NWS

Home | Current Version | Previous Version | Graphics & Text | Print | Product List | Glossary On
Versions: 1 2 3 4 5 6 7 8 9 10 11 12 13 14 15 16 17 18 19 20 21 22 23 24 25 26 27 28 29 30 31 32 33 34 35 36 37 38 39 40 41 42 43 44 45 46 47 48 49 50
000
ASUS43 KLSX 232207
RWRMO

WEATHER SUMMARY FOR MISSOURI
NATIONAL WEATHER SERVICE SPRINGFIELD MO
500 PM CDT SAT MAY 23 2015

NOTE: "FAIR" INDICATES FEW OR NO CLOUDS BELOW 12,000 FEET WITH NO
       SIGNIFICANT WEATHER AND/OR OBSTRUCTIONS TO VISIBILITY.
       CURRENT SKY AND/OR WEATHER CONDITIONS ARE NOT AVAILABLE FOR
       CHILLICOTHE AND FARMINGTON.

MOZ001>031-035>038-043-044-053-054-232300-
...NORTHERN AND WESTERN MISSOURI...

CITY           SKY/WX    TMP DP  RH WIND       PRES   REMARKS
KANSAS CTY INT CLOUDY    67  60  78 SE16      30.10F
KANSAS C DTWN  CLOUDY    69  59  70 SE12G20   30.09F
LEE`S SUMMIT   CLOUDY    67  59  75 SE12      30.11F
ST JOSEPH      CLOUDY    67  59  75 SE14      30.10F
CHILLICOTHE      N/A     71  57  61 S6        30.15F
KIRKSVILLE     CLOUDY    72  54  53 S14       30.17F

$$
MOZ066>068-077>081-088>096-101>105-232300-
...SOUTHWEST MISSOURI...

CITY           SKY/WX    TMP DP  RH WIND       PRES   REMARKS
SPRINGFIELD    PTSUNNY   73  60  63 S17       30.11F
JOPLIN         CLOUDY    72  64  76 SE12G21   30.05F

$$
MOZ032>034-039>042-045>050-055>058-069>072-232300-
...CENTRAL MISSOURI...

CITY           SKY/WX    TMP DP  RH WIND       PRES   REMARKS
COLUMBIA       CLOUDY    72  56  57 S14       30.17F
JEFFERSON CITY CLOUDY    72  55  55 SE9       30.16F
ROLLA          CLOUDY    69  54  58 SE8       30.17F
SEDALIA        CLOUDY    69  57  65 SE15      30.15F
WHITEMAN AFB   CLOUDY    68  57  68 SE7       30.12F
WARRENSBURG    CLOUDY    68  55  64 E12       30.11F
OSAGE BEACH    CLOUDY    70  55  60 SE7       30.15F

$$
MOZ051-052-059>065-232300-
...EAST CENTRAL MISSOURI...

CITY           SKY/WX    TMP DP  RH WIND       PRES   REMARKS
ST LOUIS INTL  PTSUNNY   78  49  35 SE15      30.19F
SPIRIT OF STL  PTSUNNY   76  51  41 S8        30.17F
ST CHARLES     PTSUNNY   77  50  38 S13       30.17F

$$
MOZ072>076-082>087-097>100-106>115-232300-
...SOUTH CENTRAL AND SOUTHEAST MISSOURI...

CITY           SKY/WX    TMP DP  RH WIND       PRES   REMARKS
CAPE GIRARDEAU PTSUNNY   76  54  46 SE7       30.20F
FARMINGTON     CLOUDY    73  52  46 SE8       30.25F
POPLAR BLUFF   PTSUNNY   77  51  40 E6        30.18F
WEST PLAINS    MOSUNNY   72  55  55 SE12      30.19F

$$



USA.gov is the U.S. government's official web portal to all federal, state and local government web resources and services.